contact:dominique.lefevre@mio.osupytheas.fr, maurice.libes@osupytheas.fr, didier.mallarino@osupytheas.fr
Project:EMSO http://www.emso-fr.org/EMSO-France
Depth: 2436.0 m
Title:EMSO Ligure Ouest : Data MII capteur CSTAR
DateTime,Latitude,Longitude,Instrument_Serial,Reference_Counts,Signal_Counts,Corrected_Signal_raw_counts,Calculated_Beam_c_inverse_meters,Internal_thermistor_counts
DateTime,Latitude,Longitude,Instrument_Serial,Reference_Counts,Signal_Counts,Corrected_Signal_raw_counts,Calculated_Beam_c_inverse_meters,Internal_thermistor_counts
2023-12-25T00:01:53,42.805,6.029,CST-1368DR,4077,4296,11164,01.342,553
2023-12-25T00:04:54,42.805,6.029,CST-1368DR,4077,4297,11165,01.342,553
2023-12-25T00:07:56,42.805,6.029,CST-1368DR,4077,4294,11157,01.345,553
2023-12-25T00:10:57,42.805,6.029,CST-1368DR,4077,4297,11165,01.342,553
2023-12-25T00:13:59,42.805,6.029,CST-1368DR,4077,4297,11166,01.342,553
2023-12-25T00:17:01,42.805,6.029,CST-1368DR,4077,4295,11161,01.343,553
2023-12-25T00:20:02,42.805,6.029,CST-1368DR,4077,4296,11164,01.342,553
2023-12-25T00:23:04,42.805,6.029,CST-1368DR,4077,4293,11155,01.346,553
2023-12-25T00:26:05,42.805,6.029,CST-1368DR,4077,4293,11155,01.346,553
2023-12-25T00:29:07,42.805,6.029,CST-1368DR,4077,4300,11172,01.340,553
2023-12-25T00:32:08,42.805,6.029,CST-1368DR,4077,4294,11157,01.345,553
2023-12-25T00:35:10,42.805,6.029,CST-1368DR,4077,4294,11158,01.345,553
2023-12-25T00:38:12,42.805,6.029,CST-1368DR,4077,4297,11166,01.342,553
2023-12-25T00:41:13,42.805,6.029,CST-1368DR,4077,4298,11167,01.341,553
2023-12-25T00:44:15,42.805,6.029,CST-1368DR,4077,4298,11168,01.341,553
2023-12-25T00:47:16,42.805,6.029,CST-1368DR,4077,4297,11165,01.342,553
2023-12-25T00:50:18,42.805,6.029,CST-1368DR,4077,4299,11170,01.340,553
2023-12-25T00:53:20,42.805,6.029,CST-1368DR,4077,4299,11170,01.340,553
2023-12-25T00:56:21,42.805,6.029,CST-1368DR,4077,4296,11162,01.343,553
2023-12-25T00:59:23,42.805,6.029,CST-1368DR,4077,4332,11256,01.310,553
2023-12-25T01:02:24,42.805,6.029,CST-1368DR,4077,4331,11254,01.310,553
2023-12-25T01:05:26,42.805,6.029,CST-1368DR,4077,4331,11254,01.310,553
2023-12-25T01:08:27,42.805,6.029,CST-1368DR,4077,4332,11255,01.310,553
2023-12-25T01:11:29,42.805,6.029,CST-1368DR,4077,4331,11254,01.310,553
2023-12-25T01:14:31,42.805,6.029,CST-1368DR,4077,4331,11255,01.310,553
2023-12-25T01:17:32,42.805,6.029,CST-1368DR,4077,4330,11252,01.311,553
2023-12-25T01:20:34,42.805,6.029,CST-1368DR,4077,4331,11254,01.310,553
2023-12-25T01:23:35,42.805,6.029,CST-1368DR,4077,4331,11254,01.310,553
2023-12-25T01:26:37,42.805,6.029,CST-1368DR,4077,4332,11255,01.310,553
2023-12-25T01:29:38,42.805,6.029,CST-1368DR,4077,4332,11257,01.309,553
2023-12-25T01:32:40,42.805,6.029,CST-1368DR,4077,4331,11254,01.310,553
2023-12-25T01:35:42,42.805,6.029,CST-1368DR,4077,4332,11257,01.309,553
2023-12-25T01:38:43,42.805,6.029,CST-1368DR,4077,4332,11255,01.310,553
2023-12-25T01:41:45,42.805,6.029,CST-1368DR,4077,4331,11255,01.310,553
2023-12-25T01:44:46,42.805,6.029,CST-1368DR,4077,4332,11256,01.310,553
2023-12-25T01:47:48,42.805,6.029,CST-1368DR,4077,4332,11257,01.309,553
2023-12-25T01:50:50,42.805,6.029,CST-1368DR,4077,4332,11257,01.309,553
2023-12-25T01:53:51,42.805,6.029,CST-1368DR,4077,4332,11256,01.310,553
2023-12-25T01:56:53,42.805,6.029,CST-1368DR,4077,4331,11255,01.310,553
2023-12-25T01:59:54,42.805,6.029,CST-1368DR,4077,4332,11257,01.309,553
2023-12-25T02:02:56,42.805,6.029,CST-1368DR,4077,4333,11258,01.309,553
2023-12-25T02:05:57,42.805,6.029,CST-1368DR,4077,4332,11257,01.309,553
2023-12-25T02:08:59,42.805,6.029,CST-1368DR,4077,4332,11256,01.310,553
2023-12-25T02:12:01,42.805,6.029,CST-1368DR,4077,4333,11259,01.309,553
2023-12-25T02:15:02,42.805,6.029,CST-1368DR,4077,4332,11257,01.309,553
2023-12-25T02:18:04,42.805,6.029,CST-1368DR,4077,4333,11258,01.309,553
2023-12-25T02:21:05,42.805,6.029,CST-1368DR,4077,4333,11260,01.308,553
2023-12-25T02:24:07,42.805,6.029,CST-1368DR,4077,4334,11261,01.308,553
2023-12-25T02:27:08,42.805,6.029,CST-1368DR,4077,4333,11259,01.309,553
2023-12-25T02:30:10,42.805,6.029,CST-1368DR,4077,4334,11261,01.308,553
2023-12-25T02:33:12,42.805,6.029,CST-1368DR,4077,4333,11259,01.309,553
2023-12-25T02:36:13,42.805,6.029,CST-1368DR,4077,4334,11261,01.308,553
2023-12-25T02:39:15,42.805,6.029,CST-1368DR,4077,4333,11258,01.309,553
2023-12-25T02:42:16,42.805,6.029,CST-1368DR,4077,4332,11257,01.309,553
2023-12-25T02:45:18,42.805,6.029,CST-1368DR,4077,4333,11258,01.309,553
2023-12-25T02:48:20,42.805,6.029,CST-1368DR,4077,4333,11259,01.309,553
2023-12-25T02:51:21,42.805,6.029,CST-1368DR,4077,4333,11260,01.308,553
2023-12-25T02:54:23,42.805,6.029,CST-1368DR,4077,4333,11259,01.309,553
2023-12-25T02:57:24,42.805,6.029,CST-1368DR,4077,4332,11255,01.310,553
2023-12-25T03:00:26,42.805,6.029,CST-1368DR,4077,4332,11256,01.310,553
2023-12-25T03:03:27,42.805,6.029,CST-1368DR,4077,4333,11259,01.309,553
2023-12-25T03:06:29,42.805,6.029,CST-1368DR,4077,4332,11255,01.310,553
2023-12-25T03:09:31,42.805,6.029,CST-1368DR,4077,4332,11257,01.309,553
2023-12-25T03:12:32,42.805,6.029,CST-1368DR,4077,4333,11259,01.309,553
2023-12-25T03:15:34,42.805,6.029,CST-1368DR,4077,4333,11258,01.309,553
2023-12-25T03:18:35,42.805,6.029,CST-1368DR,4077,4332,11256,01.310,553
2023-12-25T03:21:37,42.805,6.029,CST-1368DR,4077,4332,11257,01.309,553
2023-12-25T03:24:38,42.805,6.029,CST-1368DR,4077,4332,11257,01.309,553
2023-12-25T03:27:40,42.805,6.029,CST-1368DR,4077,4332,11257,01.309,553
2023-12-25T03:30:42,42.805,6.029,CST-1368DR,4077,4333,11259,01.309,553
2023-12-25T03:33:43,42.805,6.029,CST-1368DR,4077,4333,11260,01.308,553
2023-12-25T03:36:45,42.805,6.029,CST-1368DR,4077,4332,11257,01.309,553
2023-12-25T03:39:46,42.805,6.029,CST-1368DR,4077,4333,11259,01.309,553
2023-12-25T03:42:48,42.805,6.029,CST-1368DR,4077,4333,11259,01.309,553
2023-12-25T03:45:50,42.805,6.029,CST-1368DR,4077,4333,11258,01.309,553
2023-12-25T03:48:51,42.805,6.029,CST-1368DR,4077,4332,11257,01.309,553
2023-12-25T03:51:53,42.805,6.029,CST-1368DR,4077,4333,11258,01.309,553
2023-12-25T03:54:54,42.805,6.029,CST-1368DR,4077,4332,11257,01.309,553
2023-12-25T03:57:56,42.805,6.029,CST-1368DR,4077,4333,11258,01.309,553
2023-12-25T04:00:57,42.805,6.029,CST-1368DR,4077,4332,11256,01.310,553
2023-12-25T04:03:59,42.805,6.029,CST-1368DR,4077,4333,11259,01.309,553
2023-12-25T04:07:01,42.805,6.029,CST-1368DR,4077,4332,11257,01.309,553
2023-12-25T04:10:02,42.805,6.029,CST-1368DR,4077,4332,11256,01.310,553
2023-12-25T04:13:04,42.805,6.029,CST-1368DR,4077,4330,11252,01.311,553
2023-12-25T04:16:05,42.805,6.029,CST-1368DR,4077,4332,11257,01.309,553
2023-12-25T04:19:07,42.805,6.029,CST-1368DR,4077,4332,11255,01.310,553
2023-12-25T04:22:08,42.805,6.029,CST-1368DR,4077,4331,11254,01.310,553
2023-12-25T04:25:10,42.805,6.029,CST-1368DR,4077,4332,11257,01.309,553
2023-12-25T04:28:12,42.805,6.029,CST-1368DR,4077,4332,11255,01.310,553
2023-12-25T04:31:13,42.805,6.029,CST-1368DR,4077,4333,11258,01.309,553
2023-12-25T04:34:15,42.805,6.029,CST-1368DR,4077,4332,11257,01.309,553
2023-12-25T04:37:16,42.805,6.029,CST-1368DR,4077,4333,11258,01.309,553
2023-12-25T04:40:18,42.805,6.029,CST-1368DR,4077,4333,11258,01.309,553
2023-12-25T04:43:20,42.805,6.029,CST-1368DR,4077,4332,11257,01.309,553
2023-12-25T04:46:21,42.805,6.029,CST-1368DR,4077,4332,11256,01.310,553
2023-12-25T04:49:23,42.805,6.029,CST-1368DR,4077,4333,11259,01.309,553
2023-12-25T04:52:24,42.805,6.029,CST-1368DR,4077,4324,11237,01.316,553
2023-12-25T04:55:26,42.805,6.029,CST-1368DR,4077,4332,11256,01.310,553
2023-12-25T04:58:27,42.805,6.029,CST-1368DR,4077,4328,11247,01.313,553
2023-12-25T05:01:29,42.805,6.029,CST-1368DR,4077,4331,11254,01.310,553
2023-12-25T05:04:31,42.805,6.029,CST-1368DR,4077,4331,11253,01.311,553
2023-12-25T05:07:32,42.805,6.029,CST-1368DR,4077,4331,11254,01.310,553
2023-12-25T05:10:34,42.805,6.029,CST-1368DR,4077,4331,11254,01.310,553
2023-12-25T05:13:35,42.805,6.029,CST-1368DR,4077,4331,11254,01.310,553
2023-12-25T05:16:37,42.805,6.029,CST-1368DR,4077,4331,11254,01.310,553
2023-12-25T05:19:38,42.805,6.029,CST-1368DR,4077,4331,11253,01.311,553
2023-12-25T05:22:40,42.805,6.029,CST-1368DR,4077,4331,11254,01.310,553
2023-12-25T05:25:42,42.805,6.029,CST-1368DR,4077,4331,11254,01.310,553
2023-12-25T05:28:43,42.805,6.029,CST-1368DR,4077,4331,11254,01.310,553
2023-12-25T05:31:45,42.805,6.029,CST-1368DR,4077,4329,11249,01.312,553
2023-12-25T05:34:46,42.805,6.029,CST-1368DR,4077,4331,11255,01.310,553
2023-12-25T05:37:48,42.805,6.029,CST-1368DR,4077,4331,11255,01.310,553
2023-12-25T05:40:49,42.805,6.029,CST-1368DR,4077,4332,11257,01.309,553
2023-12-25T05:43:51,42.805,6.029,CST-1368DR,4077,4331,11254,01.310,553
2023-12-25T05:46:53,42.805,6.029,CST-1368DR,4077,4331,11254,01.310,553
2023-12-25T05:49:54,42.805,6.029,CST-1368DR,4077,4332,11256,01.310,553
2023-12-25T05:52:56,42.805,6.029,CST-1368DR,4077,4331,11254,01.310,553
2023-12-25T05:55:57,42.805,6.029,CST-1368DR,4077,4331,11253,01.311,553
2023-12-25T05:58:59,42.805,6.029,CST-1368DR,4077,4331,11254,01.310,553
2023-12-25T06:02:01,42.805,6.029,CST-1368DR,4077,4331,11254,01.310,553
2023-12-25T06:05:02,42.805,6.029,CST-1368DR,4077,4329,11250,01.312,553
2023-12-25T06:08:04,42.805,6.029,CST-1368DR,4077,4330,11252,01.311,553
2023-12-25T06:11:05,42.805,6.029,CST-1368DR,4077,4329,11250,01.312,553
2023-12-25T06:14:07,42.805,6.029,CST-1368DR,4077,4330,11252,01.311,553
2023-12-25T06:17:08,42.805,6.029,CST-1368DR,4077,4331,11253,01.311,553
2023-12-25T06:20:10,42.805,6.029,CST-1368DR,4077,4332,11255,01.310,553
2023-12-25T06:23:12,42.805,6.029,CST-1368DR,4077,4331,11253,01.311,553
2023-12-25T06:26:13,42.805,6.029,CST-1368DR,4077,4333,11259,01.309,553
2023-12-25T06:29:15,42.805,6.029,CST-1368DR,4077,4332,11257,01.309,553
2023-12-25T06:32:16,42.805,6.029,CST-1368DR,4077,4333,11259,01.309,553
2023-12-25T06:35:18,42.805,6.029,CST-1368DR,4077,4331,11255,01.310,553
2023-12-25T06:38:19,42.805,6.029,CST-1368DR,4077,4333,11258,01.309,553
2023-12-25T06:41:21,42.805,6.029,CST-1368DR,4077,4334,11262,01.307,553
2023-12-25T06:44:23,42.805,6.029,CST-1368DR,4077,4334,11263,01.307,553
2023-12-25T06:47:24,42.805,6.029,CST-1368DR,4077,4333,11260,01.308,553
2023-12-25T06:50:26,42.805,6.029,CST-1368DR,4077,4334,11261,01.308,553
2023-12-25T06:53:27,42.805,6.029,CST-1368DR,4077,4333,11259,01.309,553
2023-12-25T06:56:29,42.805,6.029,CST-1368DR,4077,4334,11261,01.308,553
2023-12-25T06:59:31,42.805,6.029,CST-1368DR,4077,4332,11256,01.310,553
2023-12-25T07:02:32,42.805,6.029,CST-1368DR,4077,4332,11255,01.310,553
2023-12-25T07:05:34,42.805,6.029,CST-1368DR,4077,4334,11261,01.308,553
2023-12-25T07:08:35,42.805,6.029,CST-1368DR,4077,4334,11263,01.307,553
2023-12-25T07:11:37,42.805,6.029,CST-1368DR,4077,4334,11263,01.307,553
2023-12-25T07:14:38,42.805,6.029,CST-1368DR,4077,4332,11257,01.309,553
2023-12-25T07:17:40,42.805,6.029,CST-1368DR,4077,4334,11261,01.308,553
2023-12-25T07:20:42,42.805,6.029,CST-1368DR,4077,4334,11261,01.308,553
2023-12-25T07:23:43,42.805,6.029,CST-1368DR,4077,4334,11261,01.308,553
2023-12-25T07:26:45,42.805,6.029,CST-1368DR,4077,4332,11257,01.309,553
2023-12-25T07:29:46,42.805,6.029,CST-1368DR,4077,4334,11263,01.307,553
2023-12-25T07:32:48,42.805,6.029,CST-1368DR,4077,4334,11261,01.308,553
2023-12-25T07:35:50,42.805,6.029,CST-1368DR,4077,4334,11263,01.307,553
2023-12-25T07:38:51,42.805,6.029,CST-1368DR,4077,4332,11257,01.309,553
2023-12-25T07:41:53,42.805,6.029,CST-1368DR,4077,4333,11260,01.308,553
2023-12-25T07:44:54,42.805,6.029,CST-1368DR,4077,4334,11262,01.307,553
2023-12-25T07:47:56,42.805,6.029,CST-1368DR,4077,4333,11260,01.308,553
2023-12-25T07:50:57,42.805,6.029,CST-1368DR,4077,4332,11255,01.310,553
2023-12-25T07:53:59,42.805,6.029,CST-1368DR,4077,4333,11258,01.309,553
2023-12-25T07:57:01,42.805,6.029,CST-1368DR,4077,4332,11256,01.310,553
2023-12-25T08:00:02,42.805,6.029,CST-1368DR,4077,4334,11261,01.308,553
2023-12-25T08:03:04,42.805,6.029,CST-1368DR,4077,4333,11258,01.309,553
2023-12-25T08:06:05,42.805,6.029,CST-1368DR,4077,4334,11261,01.308,553
2023-12-25T08:09:07,42.805,6.029,CST-1368DR,4077,4334,11262,01.307,553
2023-12-25T08:12:08,42.805,6.029,CST-1368DR,4077,4334,11261,01.308,553
2023-12-25T08:15:10,42.805,6.029,CST-1368DR,4077,4332,11256,01.310,553
2023-12-25T08:18:12,42.805,6.029,CST-1368DR,4077,4332,11257,01.309,553
2023-12-25T08:21:13,42.805,6.029,CST-1368DR,4077,4333,11258,01.309,553
2023-12-25T08:24:15,42.805,6.029,CST-1368DR,4077,4334,11261,01.308,553
2023-12-25T08:27:16,42.805,6.029,CST-1368DR,4077,4333,11260,01.308,553
2023-12-25T08:30:18,42.805,6.029,CST-1368DR,4077,4332,11256,01.310,553
2023-12-25T08:33:20,42.805,6.029,CST-1368DR,4077,4332,11256,01.310,553
2023-12-25T08:36:21,42.805,6.029,CST-1368DR,4077,4332,11256,01.310,553
2023-12-25T08:39:23,42.805,6.029,CST-1368DR,4077,4328,11246,01.313,553
2023-12-25T08:42:24,42.805,6.029,CST-1368DR,4077,4334,11261,01.308,552
2023-12-25T08:45:26,42.805,6.029,CST-1368DR,4077,4332,11257,01.309,553
2023-12-25T08:48:27,42.805,6.029,CST-1368DR,4077,4331,11253,01.311,553
2023-12-25T08:51:29,42.805,6.029,CST-1368DR,4077,4332,11257,01.309,553
2023-12-25T08:54:31,42.805,6.029,CST-1368DR,4077,4331,11254,01.310,553
2023-12-25T08:57:32,42.805,6.029,CST-1368DR,4077,4326,11242,01.315,553
2023-12-25T09:00:34,42.805,6.029,CST-1368DR,4077,4323,11233,01.318,553
2023-12-25T09:03:35,42.805,6.029,CST-1368DR,4077,4324,11235,01.317,553
2023-12-25T09:06:37,42.805,6.029,CST-1368DR,4077,4327,11244,01.314,553
2023-12-25T09:09:38,42.805,6.029,CST-1368DR,4077,4326,11240,01.315,553
2023-12-25T09:12:40,42.805,6.029,CST-1368DR,4077,4321,11227,01.320,553
2023-12-25T09:15:42,42.805,6.029,CST-1368DR,4077,4326,11242,01.315,553
2023-12-25T09:18:43,42.805,6.029,CST-1368DR,4077,4323,11233,01.318,553
2023-12-25T09:21:45,42.805,6.029,CST-1368DR,4077,4321,11229,01.319,553
2023-12-25T09:24:46,42.805,6.029,CST-1368DR,4077,4317,11218,01.323,553
2023-12-25T09:27:48,42.805,6.029,CST-1368DR,4077,4315,11213,01.325,553
2023-12-25T09:30:50,42.805,6.029,CST-1368DR,4077,4315,11211,01.326,553
2023-12-25T09:33:51,42.805,6.029,CST-1368DR,4077,4315,11213,01.325,553
2023-12-25T09:36:53,42.805,6.029,CST-1368DR,4077,4318,11220,01.322,553
2023-12-25T09:39:55,42.805,6.029,CST-1368DR,4077,4329,11249,01.312,553
2023-12-25T09:42:56,42.805,6.029,CST-1368DR,4077,4326,11242,01.315,553
2023-12-25T09:45:58,42.805,6.029,CST-1368DR,4077,4319,11222,01.322,553
2023-12-25T09:48:59,42.805,6.029,CST-1368DR,4077,4313,11207,01.327,553
2023-12-25T09:52:01,42.805,6.029,CST-1368DR,4077,4312,11204,01.328,553
2023-12-25T09:55:02,42.805,6.029,CST-1368DR,4076,4315,11214,01.325,553
2023-12-25T09:58:04,42.805,6.029,CST-1368DR,4077,4318,11219,01.323,553
2023-12-25T10:01:06,42.805,6.029,CST-1368DR,4077,4313,11208,01.327,553
2023-12-25T10:04:07,42.805,6.029,CST-1368DR,4077,4310,11199,01.330,553
2023-12-25T10:07:09,42.805,6.029,CST-1368DR,4077,4312,11204,01.328,553
2023-12-25T10:10:10,42.805,6.029,CST-1368DR,4077,4310,11199,01.330,553
2023-12-25T10:13:12,42.805,6.029,CST-1368DR,4076,4308,11197,01.331,553
2023-12-25T10:16:14,42.805,6.029,CST-1368DR,4076,4310,11201,01.329,553
2023-12-25T10:19:15,42.805,6.029,CST-1368DR,4076,4310,11201,01.329,553
2023-12-25T10:22:17,42.805,6.029,CST-1368DR,4076,4309,11198,01.330,553
2023-12-25T10:25:18,42.805,6.029,CST-1368DR,4076,4308,11198,01.330,553
2023-12-25T10:28:20,42.805,6.029,CST-1368DR,4076,4308,11198,01.330,553
2023-12-25T10:31:21,42.805,6.029,CST-1368DR,4077,4307,11191,01.333,553
2023-12-25T10:34:23,42.805,6.029,CST-1368DR,4076,4305,11189,01.333,553
2023-12-25T10:37:25,42.805,6.029,CST-1368DR,4077,4308,11193,01.332,553
2023-12-25T10:40:26,42.805,6.029,CST-1368DR,4076,4308,11198,01.330,553
2023-12-25T10:43:28,42.805,6.029,CST-1368DR,4077,4306,11188,01.334,553
2023-12-25T10:46:29,42.805,6.029,CST-1368DR,4077,4305,11187,01.334,553
2023-12-25T10:49:31,42.805,6.029,CST-1368DR,4076,4307,11193,01.332,553
2023-12-25T10:52:33,42.805,6.029,CST-1368DR,4076,4306,11192,01.332,553
2023-12-25T10:55:34,42.805,6.029,CST-1368DR,4077,4311,11202,01.329,553
2023-12-25T10:58:36,42.805,6.029,CST-1368DR,4077,4309,11196,01.331,553
2023-12-25T11:01:37,42.805,6.029,CST-1368DR,4077,4308,11193,01.332,553
2023-12-25T11:04:39,42.805,6.029,CST-1368DR,4077,4307,11192,01.332,553
2023-12-25T11:07:40,42.805,6.029,CST-1368DR,4077,4308,11194,01.332,553
2023-12-25T11:10:42,42.805,6.029,CST-1368DR,4077,4306,11190,01.333,553
2023-12-25T11:13:44,42.805,6.029,CST-1368DR,4077,4307,11192,01.332,553
2023-12-25T11:16:45,42.805,6.029,CST-1368DR,4077,4310,11199,01.330,553
2023-12-25T11:19:47,42.805,6.029,CST-1368DR,4077,4307,11192,01.332,553
2023-12-25T11:22:48,42.805,6.029,CST-1368DR,4077,4305,11185,01.335,553
2023-12-25T11:25:50,42.805,6.029,CST-1368DR,4077,4306,11189,01.333,553
2023-12-25T11:28:51,42.805,6.029,CST-1368DR,4077,4302,11179,01.337,553
2023-12-25T11:31:54,42.805,6.029,CST-1368DR,4077,4305,11186,01.335,553
2023-12-25T11:34:56,42.805,6.029,CST-1368DR,4077,4308,11193,01.332,553
2023-12-25T11:37:57,42.805,6.029,CST-1368DR,4077,4307,11192,01.332,553
2023-12-25T11:40:59,42.805,6.029,CST-1368DR,4077,4307,11191,01.333,553
2023-12-25T11:44:01,42.805,6.029,CST-1368DR,4077,4305,11187,01.334,553
2023-12-25T11:47:02,42.805,6.029,CST-1368DR,4077,4307,11191,01.333,553
2023-12-25T11:50:04,42.805,6.029,CST-1368DR,4076,4305,11189,01.333,553
2023-12-25T11:53:05,42.805,6.029,CST-1368DR,4077,4305,11186,01.335,553
2023-12-25T11:56:07,42.805,6.029,CST-1368DR,4077,4306,11188,01.334,553
2023-12-25T11:59:08,42.805,6.029,CST-1368DR,4076,4305,11190,01.333,553
2023-12-25T12:02:10,42.805,6.029,CST-1368DR,4077,4307,11191,01.333,553
2023-12-25T12:05:12,42.805,6.029,CST-1368DR,4077,4305,11186,01.335,553
2023-12-25T12:08:13,42.805,6.029,CST-1368DR,4077,4305,11187,01.334,553
2023-12-25T12:11:15,42.805,6.029,CST-1368DR,4077,4305,11187,01.334,553
2023-12-25T12:14:16,42.805,6.029,CST-1368DR,4077,4305,11187,01.334,553
2023-12-25T12:17:18,42.805,6.029,CST-1368DR,4077,4305,11185,01.335,553
2023-12-25T12:20:20,42.805,6.029,CST-1368DR,4077,4304,11184,01.335,553
2023-12-25T12:23:21,42.805,6.029,CST-1368DR,4076,4306,11192,01.332,553
2023-12-25T12:26:23,42.805,6.029,CST-1368DR,4076,4306,11191,01.333,553
2023-12-25T12:29:24,42.805,6.029,CST-1368DR,4076,4305,11189,01.333,553
2023-12-25T12:32:26,42.805,6.029,CST-1368DR,4076,4306,11192,01.332,553
2023-12-25T12:35:27,42.805,6.029,CST-1368DR,4076,4306,11191,01.333,553
2023-12-25T12:38:29,42.805,6.029,CST-1368DR,4076,4305,11188,01.334,553
2023-12-25T12:41:31,42.805,6.029,CST-1368DR,4076,4305,11190,01.333,553
2023-12-25T12:44:32,42.805,6.029,CST-1368DR,4076,4305,11190,01.333,553
2023-12-25T12:47:34,42.805,6.029,CST-1368DR,4076,4305,11189,01.333,553
2023-12-25T12:50:35,42.805,6.029,CST-1368DR,4076,4306,11192,01.332,553
2023-12-25T12:53:37,42.805,6.029,CST-1368DR,4076,4303,11184,01.335,553
2023-12-25T12:56:38,42.805,6.029,CST-1368DR,4076,4303,11184,01.335,553
2023-12-25T12:59:40,42.805,6.029,CST-1368DR,4076,4303,11185,01.335,553
2023-12-25T13:02:42,42.805,6.029,CST-1368DR,4076,4304,11187,01.334,553
2023-12-25T13:05:43,42.805,6.029,CST-1368DR,4076,4303,11183,01.336,553
2023-12-25T13:08:45,42.805,6.029,CST-1368DR,4076,4301,11180,01.337,553
2023-12-25T13:11:46,42.805,6.029,CST-1368DR,4076,4304,11186,01.335,553
2023-12-25T13:14:48,42.805,6.029,CST-1368DR,4076,4304,11187,01.334,553
2023-12-25T13:17:50,42.805,6.029,CST-1368DR,4076,4303,11183,01.336,553
2023-12-25T13:20:51,42.805,6.029,CST-1368DR,4076,4302,11182,01.336,553
2023-12-25T13:23:53,42.805,6.029,CST-1368DR,4076,4304,11185,01.335,553
2023-12-25T13:26:54,42.805,6.029,CST-1368DR,4076,4305,11189,01.333,553
2023-12-25T13:29:56,42.805,6.029,CST-1368DR,4076,4302,11181,01.336,553
2023-12-25T13:32:58,42.805,6.029,CST-1368DR,4076,4302,11181,01.336,553
2023-12-25T13:35:59,42.805,6.029,CST-1368DR,4076,4302,11182,01.336,553
2023-12-25T13:39:01,42.805,6.029,CST-1368DR,4076,4303,11185,01.335,553
2023-12-25T13:42:02,42.805,6.029,CST-1368DR,4076,4303,11185,01.335,553
2023-12-25T13:45:04,42.805,6.029,CST-1368DR,4076,4303,11184,01.335,553
2023-12-25T13:48:05,42.805,6.029,CST-1368DR,4076,4302,11182,01.336,553
2023-12-25T13:51:07,42.805,6.029,CST-1368DR,4076,4304,11186,01.335,553
2023-12-25T13:54:09,42.805,6.029,CST-1368DR,4076,4303,11184,01.335,553
2023-12-25T13:57:10,42.805,6.029,CST-1368DR,4076,4299,11172,01.340,553
2023-12-25T14:00:12,42.805,6.029,CST-1368DR,4076,4301,11180,01.337,553
2023-12-25T14:03:13,42.805,6.029,CST-1368DR,4076,4303,11183,01.336,553
2023-12-25T14:06:15,42.805,6.029,CST-1368DR,4076,4304,11185,01.335,553
2023-12-25T14:09:17,42.805,6.029,CST-1368DR,4076,4303,11184,01.335,553
2023-12-25T14:12:18,42.805,6.029,CST-1368DR,4076,4304,11186,01.335,553
2023-12-25T14:15:20,42.805,6.029,CST-1368DR,4076,4303,11185,01.335,553
2023-12-25T14:18:21,42.805,6.029,CST-1368DR,4076,4304,11187,01.334,553
2023-12-25T14:21:23,42.805,6.029,CST-1368DR,4076,4304,11185,01.335,553
2023-12-25T14:24:24,42.805,6.029,CST-1368DR,4076,4302,11182,01.336,553
2023-12-25T14:27:26,42.805,6.029,CST-1368DR,4076,4302,11182,01.336,553
2023-12-25T14:30:28,42.805,6.029,CST-1368DR,4076,4304,11185,01.335,553
2023-12-25T14:33:29,42.805,6.029,CST-1368DR,4076,4304,11185,01.335,553
2023-12-25T14:36:31,42.805,6.029,CST-1368DR,4076,4303,11185,01.335,553
2023-12-25T14:39:32,42.805,6.029,CST-1368DR,4076,4301,11180,01.337,553
2023-12-25T14:42:34,42.805,6.029,CST-1368DR,4076,4302,11181,01.336,553
2023-12-25T14:45:35,42.805,6.029,CST-1368DR,4076,4302,11181,01.336,553
2023-12-25T14:48:37,42.805,6.029,CST-1368DR,4076,4301,11179,01.337,553
2023-12-25T14:51:39,42.805,6.029,CST-1368DR,4076,4301,11179,01.337,553
2023-12-25T14:54:40,42.805,6.029,CST-1368DR,4076,4301,11180,01.337,553
2023-12-25T14:57:42,42.805,6.029,CST-1368DR,4076,4302,11181,01.336,553
2023-12-25T15:00:43,42.805,6.029,CST-1368DR,4076,4301,11179,01.337,553
2023-12-25T15:03:45,42.805,6.029,CST-1368DR,4076,4301,11179,01.337,553
2023-12-25T15:06:47,42.805,6.029,CST-1368DR,4076,4302,11181,01.336,553
2023-12-25T15:09:48,42.805,6.029,CST-1368DR,4076,4303,11185,01.335,553
2023-12-25T15:12:50,42.805,6.029,CST-1368DR,4076,4303,11183,01.336,553
2023-12-25T15:15:51,42.805,6.029,CST-1368DR,4076,4301,11179,01.337,553
2023-12-25T15:18:53,42.805,6.029,CST-1368DR,4076,4303,11183,01.336,553
2023-12-25T15:21:54,42.805,6.029,CST-1368DR,4076,4303,11183,01.336,553
2023-12-25T15:24:56,42.805,6.029,CST-1368DR,4076,4303,11184,01.335,553
2023-12-25T15:27:58,42.805,6.029,CST-1368DR,4076,4303,11183,01.336,553
2023-12-25T15:31:01,42.805,6.029,CST-1368DR,4076,4301,11180,01.337,553
2023-12-25T15:34:02,42.805,6.029,CST-1368DR,4076,4305,11188,01.334,553
2023-12-25T15:37:04,42.805,6.029,CST-1368DR,4076,4301,11180,01.337,553
2023-12-25T15:40:05,42.805,6.029,CST-1368DR,4076,4300,11176,01.338,553
2023-12-25T15:43:07,42.805,6.029,CST-1368DR,4076,4301,11178,01.337,553
2023-12-25T15:46:09,42.805,6.029,CST-1368DR,4076,4302,11181,01.336,553
2023-12-25T15:49:10,42.805,6.029,CST-1368DR,4076,4302,11181,01.336,553
2023-12-25T15:52:12,42.805,6.029,CST-1368DR,4076,4302,11180,01.337,553
2023-12-25T15:55:13,42.805,6.029,CST-1368DR,4076,4303,11183,01.336,553
2023-12-25T15:58:15,42.805,6.029,CST-1368DR,4076,4301,11179,01.337,553
2023-12-25T16:01:16,42.805,6.029,CST-1368DR,4076,4302,11181,01.336,553
2023-12-25T16:04:18,42.805,6.029,CST-1368DR,4076,4301,11180,01.337,553
2023-12-25T16:07:20,42.805,6.029,CST-1368DR,4076,4302,11181,01.336,553
2023-12-25T16:10:21,42.805,6.029,CST-1368DR,4076,4301,11178,01.337,553
2023-12-25T16:13:23,42.805,6.029,CST-1368DR,4076,4302,11180,01.337,553
2023-12-25T16:16:24,42.805,6.029,CST-1368DR,4076,4301,11178,01.337,553
2023-12-25T16:19:26,42.805,6.029,CST-1368DR,4076,4300,11176,01.338,553
2023-12-25T16:22:28,42.805,6.029,CST-1368DR,4076,4301,11179,01.337,553
2023-12-25T16:25:29,42.805,6.029,CST-1368DR,4076,4302,11181,01.336,553
2023-12-25T16:28:31,42.805,6.029,CST-1368DR,4076,4303,11183,01.336,553
2023-12-25T16:31:32,42.805,6.029,CST-1368DR,4076,4304,11187,01.334,553
2023-12-25T16:34:34,42.805,6.029,CST-1368DR,4076,4302,11181,01.336,553
2023-12-25T16:37:35,42.805,6.029,CST-1368DR,4076,4302,11182,01.336,553